Regional Weather Roundup
Issued by NWS

Home | Current Version | Previous Version | Text Only | Print | Product List | Glossary Off
Versions: 1 2 3 4 5 6 7 8 9 10 11 12 13 14 15 16 17 18 19 20 21 22 23 24 25 26 27 28 29 30 31 32 33 34 35 36 37 38 39 40 41 42 43 44 45 46 47 48 49 50

000
ASUS44 KMEG 072100
RWRTN
TENNESSEE HOURLY STATE WEATHER ROUNDUP
NATIONAL WEATHER SERVICE MEMPHIS TN
300 PM CST WED DEC 07 2016

TNZ002-004-019-021-049-052-054-088>092-072200-
WEST TENNESSEE

CITY           SKY/WX    TMP DP  RH WIND       PRES   REMARKS
MEMPHIS INTL   CLOUDY    46  33  60 CALM      30.17R
NWS MEMPHIS      N/A     44 N/A N/A MISG        N/A
JACKSON        CLOUDY    45  33  63 N7        30.16R
DYERSBURG      MOSUNNY   45  28  53 N3        30.17S
PARIS          SUNNY     41  27  56 N3        30.16R
$$

TNZ008-025-027-028-033-062-065-066-072200-
NORTH MIDDLE TENNESSEE

CITY           SKY/WX    TMP DP  RH WIND       PRES   REMARKS
NASHVILLE      PTSUNNY   49  31  49 N9        30.14R
CLARKSVILLE    SUNNY     46  22  38 NE8       30.15S
CROSSVILLE     CLOUDY    42  34  73 N6        30.06R
$$

TNZ061-075-076-078-094-096-097-072200-
SOUTH MIDDLE TENNESSEE

CITY           SKY/WX    TMP DP  RH WIND       PRES   REMARKS
$$

TNZ017-018-042-046-047-072200-
NORTHEAST TENNESSEE

CITY           SKY/WX    TMP DP  RH WIND       PRES   REMARKS
TRI CITIES     MOSUNNY   52  32  46 N8        30.03R
$$

TNZ012-013-036-069-073-074-072200-
CENTRAL EAST TENNESSEE

CITY           SKY/WX    TMP DP  RH WIND       PRES   REMARKS
KNOXVILLE      PTSUNNY   55  36  48 N5        30.02S
OAK RIDGE      MOSUNNY   53  36  52 VRB6      30.05S
GATLINBURG     SUNNY     54  37  54 NE3       30.03S
$$

TNZ083-085-099-072200-
SOUTHEAST TENNESSEE

CITY           SKY/WX    TMP DP  RH WIND       PRES   REMARKS
CHATTANOOGA    PTSUNNY   55  37  50 W8        30.05S
$$

SKY/WX REPORTED AS FAIR MEANS FEW OR NO CLOUDS BELOW
12 THOUSAND FEET.





USA.gov is the U.S. government's official web portal to all federal, state and local government web resources and services.